Location: Aurora Center
(43.5271°N, 98.5894°W)
Time: 06:03:13
(UTC-05:00)

Explorer 7 - Visible Passes

Search period start: 19 July 2024 00:00
Search period end: 29 July 2024 00:00
Orbit: 465 x 619 km, 50.3° (Epoch: 18 July)

Date Brightness Start Highest point End Pass type
(mag) Time Alt. Az. Time Alt. Az. Time Alt. Az.
19 Jul 9.0 01:31:27 19° E 01:31:27 19° E 01:32:56 10° ENE visible
19 Jul 7.5 03:06:53 39° W 03:08:20 58° NNW 03:12:48 10° ENE visible
19 Jul 8.6 04:44:29 10° WNW 04:48:39 34° N 04:52:42 10° ENE visible
20 Jul 8.8 01:23:04 22° ENE 01:23:04 22° ENE 01:24:49 10° ENE visible
20 Jul 7.8 02:58:30 33° WNW 03:00:11 51° NNW 03:04:36 10° ENE visible
20 Jul 8.6 04:36:24 10° WNW 04:40:33 34° N 04:44:37 10° ENE visible
21 Jul 8.6 01:14:35 26° ENE 01:14:35 26° ENE 01:16:39 10° ENE visible
21 Jul 8.0 02:50:01 28° WNW 02:52:01 45° NNW 02:56:23 10° ENE visible
21 Jul 8.6 04:28:15 10° WNW 04:32:26 34° N 04:36:31 10° ENE visible
22 Jul 8.3 01:05:58 31° ENE 01:05:58 31° ENE 01:08:25 10° ENE visible
22 Jul 8.2 02:41:23 22° WNW 02:43:51 41° NNW 02:48:09 10° ENE visible
22 Jul 8.6 04:20:04 10° WNW 04:24:17 35° N 04:28:23 10° ENE visible
23 Jul 7.9 00:57:08 41° ENE 00:57:08 41° ENE 01:00:08 10° ENE visible
23 Jul 8.4 02:32:32 17° WNW 02:35:39 38° N 02:39:54 10° ENE visible
23 Jul 8.5 04:11:50 10° WNW 04:16:06 37° N 04:20:15 10° ENE visible
24 Jul 7.3 00:47:52 64° NE 00:47:52 64° NE 00:51:50 10° ENE visible
24 Jul 8.5 02:23:13 10° WNW 02:27:25 36° N 02:31:39 10° ENE visible
24 Jul 8.4 04:03:33 10° WNW 04:07:52 40° NNE 04:12:04 10° E visible
24 Jul 8.6 23:01:47 19° E 23:01:47 19° E 23:03:26 10° ENE visible
25 Jul 7.3 00:36:49 31° W 00:38:56 66° NNW 00:43:29 10° ENE visible
25 Jul 8.6 02:14:58 10° WNW 02:19:11 35° N 02:23:22 10° ENE visible
25 Jul 8.2 03:55:13 10° WNW 03:59:36 44° NNE 04:03:52 10° E visible
25 Jul 7.0 05:35:02 10° WNW 05:39:29 63° SW 05:43:47 10° SE visible
25 Jul 7.4 22:46:50 10° SSW 22:50:58 39° SE 22:55:12 10° ENE visible
26 Jul 7.6 00:26:08 10° WSW 00:30:35 57° NNW 00:35:06 10° ENE visible
26 Jul 8.6 02:06:43 10° WNW 02:10:54 34° N 02:15:04 10° ENE visible
26 Jul 8.0 03:46:51 10° WNW 03:51:18 49° NNE 03:55:38 10° E visible
26 Jul 7.2 05:26:41 10° WNW 05:31:04 50° SW 05:35:17 10° SE visible
26 Jul 7.2 22:38:13 10° SW 22:42:29 49° SE 22:46:52 10° ENE visible
27 Jul 7.9 00:17:50 10° W 00:22:14 50° NNW 00:26:42 10° ENE visible
27 Jul 8.6 01:58:25 10° WNW 02:02:37 34° N 02:06:46 10° ENE visible
27 Jul 7.7 03:38:26 10° WNW 03:42:56 55° NNE 03:47:20 10° E visible
27 Jul 7.4 05:18:20 10° WNW 05:22:35 40° SW 05:26:41 10° SSE visible
27 Jul 7.0 22:29:39 10° SW 22:34:00 60° SE 22:38:29 10° ENE visible
28 Jul 8.1 00:09:32 10° W 00:13:52 45° NNW 00:18:16 10° ENE visible
28 Jul 8.6 01:50:05 10° WNW 01:54:16 35° N 01:58:27 10° ENE visible
28 Jul 7.4 03:30:00 10° WNW 03:34:32 64° NNE 03:38:59 10° ESE visible
28 Jul 7.7 05:10:01 10° WNW 05:14:03 32° SW 05:17:57 10° SSE visible
28 Jul 6.9 22:21:06 10° SW 22:25:30 74° SSE 22:30:03 10° ENE visible
